EW8780 Weather Reports


Display with metric or nautical units.
time (UTC)temp
F
wind
direction
speed
MPH
gust
MPH
rain 1hr
in
rain 24hr
in
rain mn
in
humidity
%
barometer
mb
20260902024608 61 238 2.0 5.0 0.00 0.05 0.05 85 1011.0
20260902023103 61 228 0.0 3.0 0.00 0.05 0.05 85 1010.9
20260902021603 62 165 1.0 5.0 0.00 0.05 0.05 84 1011.0
20260902020054 62 247 2.0 4.0 0.00 0.05 0.05 83 1010.9
20260902014554 63 246 3.0 5.0 0.00 0.05 0.05 82 1010.9
20260902013053 64 180 2.0 6.0 0.00 0.05 0.05 81 1010.8
20260902011559 63 153 1.0 5.0 0.00 0.05 0.05 81 1010.7
20260902010052 64 227 2.0 7.0 0.00 0.05 0.05 80 1010.6
20260902004552 65 183 2.0 7.0 0.00 0.05 0.05 78 1010.5
20260902003050 65 215 2.0 6.0 0.00 0.05 0.05 80 1010.6
20260902001603 64 229 2.0 6.0 0.00 0.05 0.05 80 1010.7
20260902000047 65 218 3.0 7.0 0.00 0.05 0.05 81 1010.7
20260901234547 64 187 3.0 9.0 0.00 0.05 0.05 82 1010.8
20260901233054 64 227 3.0 10.0 0.00 0.05 0.05 84 1010.7
20260901231543 63 236 3.0 7.0 0.00 0.05 0.05 87 1010.8
20260901230042 63 240 2.0 5.0 0.00 0.05 0.05 88 1010.8
20260901224542 62 265 3.0 6.0 0.00 0.05 0.05 91 1010.9
20260901223042 62 230 1.0 4.0 0.00 0.05 0.05 92 1011.0
20260901221541 62 225 1.0 4.0 0.00 0.05 0.05 92 1010.9
20260901220042 62 221 0.0 3.0 0.00 0.05 0.05 92 1011.0
20260901214542 61 136 1.0 4.0 0.00 0.05 0.05 91 1011.0
20260901213054 61 238 2.0 5.0 0.00 0.05 0.05 90 1011.1
20260901211539 61 229 2.0 6.0 0.00 0.05 0.05 90 1011.2
20260901210038 61 208 3.0 8.0 0.00 0.05 0.05 88 1011.1
20260901204537 63 249 3.0 8.0 0.00 0.05 0.05 86 1011.1
20260901203101 63 258 2.0 5.0 0.00 0.05 0.05 86 1011.0
20260901201536 63 217 2.0 5.0 0.00 0.05 0.05 87 1011.0
20260901200040 63 144 2.0 7.0 0.00 0.05 0.05 87 1011.0
20260901194536 62 222 1.0 6.0 0.00 0.05 0.05 88 1011.0
20260901193038 63 245 1.0 5.0 0.00 0.05 0.05 88 1010.9
20260901191532 62 217 1.0 4.0 0.00 0.05 0.05 89 1010.9
20260901190032 64 214 2.0 6.0 0.00 0.05 0.05 88 1010.9
20260901184529 64 222 3.0 7.0 0.00 0.05 0.05 89 1010.8
20260901183030 64 231 2.0 7.0 0.00 0.05 0.05 92 1010.8
20260901181528 63 227 2.0 5.0 0.01 0.05 0.05 94 1010.7
20260901180024 63 233 2.0 7.0 0.01 0.05 0.05 95 1010.6
20260901174522 63 236 2.0 4.0 0.01 0.05 0.05 95 1010.5
20260901173019 60 337 0.0 0.0 0.01 0.05 0.05 95 1010.4
20260901171518 61 337 0.0 0.0 0.01 0.04 0.04 95 1010.3
20260901170017 60 342 0.0 0.0 0.01 0.04 0.04 95 1010.2
20260901164515 60 342 0.0 0.0 0.03 0.04 0.04 95 1010.1
20260901163015 60 342 0.0 0.0 0.03 0.04 0.04 95 1010.1
20260901161514 60 13 0.0 0.0 0.02 0.03 0.03 95 1010.2
20260901160012 59 13 0.0 0.0 0.02 0.03 0.03 95 1010.2
20260901154510 59 328 0.0 0.0 0.00 0.01 0.01 95 1010.1
20260901153010 59 235 0.0 0.0 0.00 0.01 0.01 95 1010.0
20260901151508 59 207 0.0 0.0 0.01 0.01 0.01 95 1009.9
20260901150007 58 207 0.0 0.0 0.01 0.01 0.01 95 1009.8
20260901144501 58 206 0.0 0.0 0.01 0.01 0.01 95 1009.7
20260901143057 58 194 0.0 0.0 0.01 0.01 0.01 95 1009.7
20260901141556 58 194 0.0 0.0 0.00 0.00 0.00 95 1009.7
20260901140049 58 194 0.0 0.0 0.00 0.00 0.00 94 1009.6
20260901134548 58 194 0.0 0.0 0.00 0.00 0.00 94 1009.5
20260901133049 58 194 0.0 0.0 0.00 0.00 0.00 94 1009.4
20260901131548 58 194 0.0 0.0 0.00 0.00 0.00 94 1009.2
20260901130046 58 194 0.0 0.0 0.00 0.00 0.00 94 1009.2
20260901124546 58 194 0.0 0.0 0.00 0.00 0.00 94 1009.2
20260901123046 58 194 0.0 0.0 0.00 0.00 0.00 94 1009.1
20260901121544 58 194 0.0 0.0 0.00 0.00 0.00 93 1009.3
20260901120049 58 194 0.0 0.0 0.00 0.00 0.00 93 1009.3
20260901114543 58 194 0.0 0.0 0.00 0.00 0.00 93 1009.3
20260901113042 58 194 0.0 0.0 0.00 0.00 0.00 93 1009.3
20260901111542 58 194 0.0 0.0 0.00 0.00 0.00 93 1009.3
20260901110040 57 194 0.0 0.0 0.00 0.00 0.00 93 1009.5
20260901104542 58 194 0.0 0.0 0.00 0.00 0.00 93 1009.5
20260901103039 58 194 0.0 0.0 0.00 0.00 0.00 92 1009.4
20260901101550 58 194 0.0 0.0 0.00 0.00 0.00 92 1009.4
20260901100037 58 194 0.0 0.0 0.00 0.00 0.00 92 1009.5
20260901094539 58 194 0.0 0.0 0.00 0.00 0.00 92 1009.4
20260901093035 58 194 0.0 0.0 0.00 0.00 0.00 92 1009.6
20260901091535 58 194 0.0 0.0 0.00 0.00 0.00 92 1009.6
20260901090034 58 194 0.0 0.0 0.00 0.00 0.00 92 1009.6
20260901084533 58 194 0.0 0.0 0.00 0.00 0.00 92 1009.6
20260901083033 58 194 0.0 0.0 0.00 0.00 0.00 92 1009.5
20260901081533 58 194 0.0 0.0 0.00 0.00 0.00 92 1009.5
20260901080032 58 194 0.0 0.0 0.00 0.00 0.00 92 1009.5
20260901074542 58 194 0.0 0.0 0.00 0.00 0.00 92 1009.5
20260901073037 58 194 0.0 0.0 0.00 0.00 0.00 92 1009.6
20260901071529 57 194 0.0 0.0 0.00 0.00 0.00 91 1009.6
20260901070030 58 194 0.0 0.0 0.00 0.00 0.00 91 1009.6
20260901064529 58 194 0.0 0.0 0.00 0.00 0.00 91 1009.7
20260901063025 57 194 0.0 0.0 0.00 0.00 0.00 91 1009.8
20260901061525 57 194 0.0 0.0 0.00 0.00 0.00 91 1009.8
20260901060024 57 194 0.0 0.0 0.00 0.00 0.00 91 1009.8
20260901054524 57 194 0.0 0.0 0.00 0.00 0.00 91 1010.0
20260901053024 57 194 0.0 0.0 0.00 0.00 0.00 91 1010.1
20260901051530 57 194 0.0 0.0 0.00 0.00 0.00 91 1010.3
20260901050022 57 194 0.0 0.0 0.00 0.00 0.00 91 1010.4
20260901044523 57 194 0.0 0.0 0.00 0.00 0.00 91 1010.3
20260901043022 57 194 0.0 0.0 0.00 0.00 0.00 91 1010.4
20260901041544 57 194 0.0 0.0 0.00 0.00 0.00 90 1010.3
20260901040021 57 194 0.0 0.0 0.00 0.00 0.00 90 1010.3
20260901034519 57 194 0.0 0.0 0.00 0.00 0.00 90 1010.0
20260901033016 57 194 0.0 0.0 0.00 0.00 0.00 90 1009.9
20260901031516 57 194 0.0 0.0 0.00 0.00 0.00 88 1009.8
20260901030014 57 194 0.0 1.0 0.00 0.00 0.00 88 1009.8